This is the latest recevied weather packets stored in our database for station/object K7CTM. If no packets are shown the sender has not sent any weather packets the latest 10 day(s).
| Time | Temp. | Humidity | Pressure | Rain* | Wind** | Luminosity | Snow |
|---|---|---|---|---|---|---|---|
| 1778169925 | 10.56° C | 88% | 1022.7 hPa | 0 mm | - | 137 W/m² | - |
| 1778169621 | 10.56° C | 89% | 1022.7 hPa | 1.78 mm | - | 156 W/m² | - |
| 1778169316 | 10.56° C | 88% | 1022.9 hPa | 1.78 mm | - | 119 W/m² | - |
| 1778169014 | 11.11° C | 84% | 1022.9 hPa | 0 mm | - | 120 W/m² | - |
| 1778168711 | 10.56° C | 83% | 1022.9 hPa | 0 mm | - | 126 W/m² | - |
| 1778168408 | 10.56° C | 82% | 1023 hPa | 0 mm | - | 83 W/m² | - |
| 1778168104 | 11.11° C | 78% | 1022.8 hPa | 0 mm | - | 93 W/m² | - |
| 1778167800 | 10.56° C | 81% | 1022.8 hPa | 0 mm | - | 85 W/m² | - |
| 1778167496 | 11.11° C | 82% | 1022.8 hPa | 0 mm | - | 122 W/m² | - |
| 1778167193 | 11.11° C | 79% | 1022.7 hPa | 0 mm | - | 139 W/m² | - |
| 1778166889 | 10.56° C | 79% | 1023 hPa | 0 mm | - | 157 W/m² | - |
| 1778166587 | 10.56° C | 84% | 1022.9 hPa | 0 mm | - | 141 W/m² | - |
| 1778166283 | 10.56° C | 87% | 1022.7 hPa | 0 mm | - | 131 W/m² | - |
| 1778165980 | 10° C | 87% | 1022.9 hPa | 1.27 mm | - | 123 W/m² | - |
| 1778165675 | 10° C | 87% | 1022.7 hPa | 1.27 mm | - | 123 W/m² | - |
| 1778165372 | 10° C | 88% | 1022.7 hPa | 0 mm | - | 124 W/m² | - |
| 1778165069 | 10° C | 87% | 1022.5 hPa | 0 mm | - | 96 W/m² | - |
| 1778164766 | 10° C | 81% | 1022.8 hPa | 1.78 mm | - | 65 W/m² | - |
| 1778164464 | 10° C | 81% | 1022.9 hPa | 3.05 mm | - | 41 W/m² | - |
| 1778164160 | 10° C | 81% | 1022.8 hPa | 1.27 mm | - | 64 W/m² | - |
| 1778163856 | 10.56° C | 80% | 1022.8 hPa | 1.78 mm | - | 44 W/m² | - |
| 1778163554 | 10.56° C | 79% | 1022.5 hPa | 1.78 mm | - | 46 W/m² | - |
| 1778163250 | 10.56° C | 76% | 1022.4 hPa | 0 mm | - | 45 W/m² | - |
| 1778162947 | 10.56° C | 76% | 1022.3 hPa | 0 mm | - | 38 W/m² | - |
| 1778162643 | 11.11° C | 75% | 1022.3 hPa | 0 mm | - | 30 W/m² | - |
* Rain latest hour (hover to see other rain measurements)
** Current wind speed in m/s (hover to see current wind gust speed)